Regional Weather Roundup
Issued by NWS

Home | Current Version | Previous Version | Graphics & Text | Print | Product List | Glossary On
Versions: 1 2 3 4 5 6 7 8 9 10 11 12 13 14 15 16 17 18 19 20 21 22 23 24 25 26 27 28 29 30 31 32 33 34 35 36 37 38 39 40 41 42 43 44 45 46 47 48 49 50
000
ASUS43 KMPX 281010
RWRMN
WEATHER ROUNDUP FOR MINNESOTA
NATIONAL WEATHER SERVICE TWIN CITIES/CHANHASSEN MN
500 AM CDT TUE MAR 28 2017


NOTE: "FAIR" INDICATES FEW OR NO CLOUDS BELOW 12,000 FEET WITH NO
SIGNIFICANT WEATHER AND/OR OBSTRUCTIONS TO VISIBILITY. N/A MEANS
CURRENT SKY AND/OR WEATHER CONDITIONS ARE NOT AVAILABLE.

MNZ060>063-068>070-281100-
   Twin Cities Metro

CITY           SKY/WX    TMP DP  RH WIND       PRES   REMARKS
TWIN CITIES    PTCLDY    38  34  85 CALM      30.08R
ST PAUL        CLOUDY    35  35 100 SE6       30.09R WCI  30
CRYSTAL        CLEAR     33  28  81 NW3       30.07R
BLAINE         CLEAR     34  34 100 CALM      30.08R
LAKEVILLE      CLOUDY    30  30 100 CALM      30.08R FOG
EDEN PRAIRIE   CLOUDY    38  34  85 CALM      30.06R
SOUTH ST PAUL  PTCLDY    33  32  97 CALM      30.07S
LAKE ELMO      FAIR      30  30 100 CALM      30.08R
$$
MNZ001>005-007-008-013>017-022>024-027-028-281100-
   Northwest Minnesota

CITY           SKY/WX    TMP DP  RH WIND       PRES   REMARKS
BEMIDJI        PTCLDY    29  26  88 CALM      30.07R
HALLOCK        CLOUDY    34  30  86 N6        30.13S WCI  29
ROSEAU         CLOUDY    34  28  80 NE5       30.13R WCI  30
WARROAD        CLOUDY    34  30  86 N6        30.13R WCI  29
THIEF RVR FALL CLOUDY   N/A N/A N/A NE8       30.11S
CROOKSTON      CLOUDY    32  32 100 N5        30.11R FOG     WCI  27
FOSSTON        CLOUDY    34  30  86 CALM      30.09S
DETROIT LAKES  CLEAR     32  32 100 CALM      30.08S FOG
MOORHEAD       DRZL/FOG  32  30  93 N6        30.09F VSB 1/4 WCI  26
PARK RAPIDS    PTCLDY    29  22  75 CALM      30.07R
MAHNOMEN       FAIR      31  29  96 CALM      30.08R
$$
MNZ006-009>011-018-025>026-281100-
   North Central Minnesota

CITY           SKY/WX    TMP DP  RH WIND       PRES   REMARKS
BAUDETTE       CLOUDY    34  27  75 N3        30.10S
FLAG ISLAND    PTCLDY    34  28  80 N5        30.13R WCI  30
INTL FALLS     CLOUDY    37  28  70 NE6       30.09R
WASKISH        CLOUDY    28  27  93 CALM      30.09R
BIG FORK       PTCLDY    28  25  86 CALM      30.06R
LONGVILLE      CLEAR     27  25  93 CALM      30.07R
GRAND RAPIDS   PTCLDY    28  26  92 S5        30.09S WCI  23
CRANE LAKE     CLOUDY    27  25  93 CALM      30.11R
ORR            CLOUDY    30  25  80 CALM      30.05S
COOK           CLOUDY    30  27  86 CALM      30.08R
WALKER         FAIR      28  24  86 W5        30.08R WCI  23
$$
MNZ012-019>021-037-281100-
   Northeast Minnesota

CITY           SKY/WX    TMP DP  RH WIND       PRES   REMARKS
DULUTH         CLEAR     27  24  89 CALM      30.08R
ELY            CLOUDY    30  27  86 CALM      30.08S
HIBBING        CLOUDY    26  25  96 CALM      30.07S
EVELETH        PTCLDY    28  26  92 CALM      30.10R
DULUTH HARBOR  PTCLDY    30  28  93 CALM      30.11R
TWO HARBORS    CLEAR     36  30  80 NW5       30.07R
SILVER BAY     PTCLDY    25  25 100 CALM      30.07R
GRAND MARAIS     N/A     32  30  92 CALM      30.08R
G MARAIS ARPRT CLOUDY    28  23  80 CALM      30.06R
$$
MNZ029>031-032-039>041-046>048-054>057-064-281100-
   West Central Minnesota

CITY           SKY/WX    TMP DP  RH WIND       PRES   REMARKS
FERGUS FALLS   CLEAR     34  34 100 CALM      30.11R
WHEATON        FOG       30  28  93 N3        30.09S VSB 1/2
MORRIS         CLEAR     34  32  93 E5        30.05S WCI  30
ALEXANDRIA     CLEAR     34  32  92 CALM      30.06S
ELBOW LAKE     FAIR      33  32  97 CALM      30.07R
WADENA         CLEAR     27  27 100 CALM      30.07R
GLENWOOD       CLEAR     36  34  93 CALM      30.07S
APPLETON       PTCLDY    36  30  80 CALM      30.07R
BENSON         CLEAR     34  28  80 E3        30.08S
ORTONVILLE     CLEAR     36  32  87 CALM      30.06S
MADISON        CLOUDY    37  37 100 CALM      30.07R
WILLMAR        CLOUDY    36  34  93 E3        30.08S
$$
MNZ033>034-036-042>043-049>051-058-059-281100-
   Central Minnesota

CITY           SKY/WX    TMP DP  RH WIND       PRES   REMARKS
ST CLOUD       CLEAR     31  31 100 CALM      30.08R
SAUK CENTRE    FAIR      28  27  98 CALM      30.07S
PAYNESVILLE      N/A     31  31 100 CALM      30.08S
AITKIN         CLEAR     27  23  86 CALM      30.06S
PINE RIVER     CLEAR     25  23  93 CALM      30.10S
BRAINERD       CLEAR     27  26  96 CALM      30.07F
STAPLES        CLEAR     28  27  93 CALM      30.06S
LONG PRAIRIE   FAIR      30  28  93 CALM      30.07S
LITTLE FALLS   CLEAR     28  27  93 CALM      30.08S
LITCHFIELD     CLEAR     37  36  93 CALM      30.08S
BUFFALO        CLEAR     33  31  92 CALM      30.09R
MAPLE LAKE     CLEAR     32  32 100 CALM      30.08S
HUTCHINSON     CLOUDY    34  34  99 CALM      30.08R
$$
MNZ037-044-045-052-053-281100-
   East Central Minnesota

CITY           SKY/WX    TMP DP  RH WIND       PRES   REMARKS
PRINCETON      CLEAR     30  28  93 CALM      30.09R
MORA           CLEAR     27  27 100 CALM      30.10S
CAMBRIDGE      CLEAR     30  27  86 CALM      30.07R
RUSH CITY      PTCLDY    28  27  94 N3        30.09R
MOOSE LAKE     PTCLDY    27  27 100 CALM      30.07S
CLOQUET        CLEAR     27  27 100 N5        30.08S WCI  21
MCGREGOR       CLEAR     28  28 100 CALM      30.09R
$$
MNZ071>073-080-081-089-090-097-098-281100-
   Southwest Minnesota

CITY           SKY/WX    TMP DP  RH WIND       PRES   REMARKS
MONTEVIDEO     CLOUDY    37  34  87 E5        30.08S
GRANITE FALLS  CLOUDY    40  36  85 CALM      30.08R
CANBY          CLOUDY    40  38  90 CALM      30.07R
MARSHALL       CLOUDY    42  37  82 SW5       30.07R
REDWOOD FALLS  CLOUDY    40  32  73 N3        30.06S
OLIVIA         CLOUDY    36  32  87 NE6       30.06S
PIPESTONE      CLEAR     37  34  87 CALM      30.05S FOG
WINDOM         CLOUDY    37  36  93 W5        30.06R
WORTHINGTON    CLEAR     34  33  96 CALM      30.06S
JACKSON        MOCLDY    36  36 100 NW5       30.06S
TRACY          CLOUDY    42  38  88 W6        30.06S
SLAYTON        CLEAR     33  32  98 W6        30.06S FOG     WCI  27
$$
MNZ065>067-074>077-082>085-091>093-281100-
   South Central Minnesota

CITY           SKY/WX    TMP DP  RH WIND       PRES   REMARKS
MANKATO        FOG       37  36  96 E5        30.07S VSB 1/2
NEW ULM        CLOUDY    37  34  87 CALM      30.06S
ST JAMES       CLOUDY    36  36 100 CALM      30.07R
FAIRMONT       FOG       34  34 100 CALM      30.07R VSB 1
GLENCOE        CLOUDY    34  33  98 CALM      30.07R
FARIBAULT      FOG       30  30 100 CALM      30.08R VSB 3/4
OWATONNA       CLEAR     30  28  93 CALM      30.08R
WASECA         CLEAR     32  32 100 CALM      30.09R FOG
ALBERT LEA     CLEAR     30  30 100 CALM      30.07R FOG
$$
MNZ078>079-086>088-094>096-281100-
   Southeast Minnesota

CITY           SKY/WX    TMP DP  RH WIND       PRES   REMARKS
ROCHESTER      CLEAR     35  35 100 NE6       30.07R FOG     WCI  30
RED WING       CLEAR     30  28  93 CALM      30.08R FOG
STANTON        CLEAR     31  29  94 CALM      30.07R
DODGE CENTER   FOG       30  30 100 CALM      30.07R VSB 1/4
WINONA         FOG       32  32 100 CALM      30.09S VSB 1/4
AUSTIN         PTCLDY    30  30 100 CALM      30.07R
PRESTON        CLOUDY    35  34  96 N3        30.07S
$$
ABBREVIATIONS USED IN REMARKS
   TC - TEMPERATURES IN CELSIUS
  WCI - WIND CHILL INDEX
   HX - HEAT INDEX
  VSB - VISIBILITY
$$



USA.gov is the U.S. government's official web portal to all federal, state and local government web resources and services.